IRNSS-1G (41469 NORAD) Tracking and Keplerian Element Data

This shows tracking and keplerian element data for the satellite.

Feedback or suggestion? Click here.




ElementValue
Catalog41469
NameIRNSS-1G
Epoch Orbit2975
Epoch Day159.94913179
Epoch Year2024
RAAN119.3207
Inclination3.4213
Eccentricity0.0005812
Argument of Perigee329.0137
Mean Anonmoly279.7577
Mean Motion1.00272853
Decay Rate-3.35E-06
L11 41469U 16027A 24159.94913179 -.00000335 00000+0 00000+0 0 9994
L22 41469 3.4213 119.3207 0005812 329.0137 279.7577 1.00272853 29758



Live tracking and technical data element details for IRNSS-1G (NORAD 41469). IRNSS-1G can be tracked NOW for your location showing map with azimuth and elevation plus other details from your city location.







IsCatalogInMostPopularTable: catalog: 41469, numindb: 610
Update: records affected: 1



GetName: 41469 IRNSS-1G

Hit Count: updated at: Mon, 17 Jun 2024 23:36:59 GMT